This is the latest recevied weather packets stored in our database for station/object W7BTL. If no packets are shown the sender has not sent any weather packets the latest 10 day(s).
| Time | Temp. | Humidity | Pressure | Rain* | Wind** | Luminosity | Snow |
|---|---|---|---|---|---|---|---|
| 1788427052 | 18.89° C | 87% | 1014.1 hPa | 0 mm | - | 0 W/m² | - |
| 1788426746 | 18.89° C | 87% | 1014.3 hPa | 0 mm | - | 0 W/m² | - |
| 1788426442 | 18.89° C | 88% | 1014.3 hPa | 0 mm | - | 0 W/m² | - |
| 1788426140 | 18.89° C | 88% | 1014.2 hPa | 0 mm | - | 0 W/m² | - |
| 1788425840 | 18.33° C | 89% | 1014.3 hPa | 0 mm | - | 0 W/m² | - |
| 1788425535 | 18.33° C | 89% | 1014.4 hPa | 0 mm | - | 0 W/m² | - |
| 1788425232 | 17.78° C | 88% | 1014.4 hPa | 0 mm | - | 0 W/m² | - |
| 1788424928 | 18.33° C | 86% | 1014.5 hPa | 0 mm | - | 0 W/m² | - |
| 1788424624 | 18.33° C | 86% | 1014.4 hPa | 0 mm | - | 0 W/m² | - |
| 1788424323 | 18.33° C | 86% | 1014.5 hPa | 0 mm | - | 0 W/m² | - |
| 1788424017 | 18.33° C | 86% | 1014.4 hPa | 0 mm | - | 0 W/m² | - |
| 1788423714 | 18.33° C | 87% | 1014.5 hPa | 0 mm | - | 0 W/m² | - |
| 1788423408 | 18.33° C | 86% | 1014.5 hPa | 0 mm | - | 0 W/m² | - |
| 1788423104 | 18.33° C | 85% | 1014.6 hPa | 0 mm | - | 0 W/m² | - |
| 1788422800 | 18.33° C | 84% | 1014.6 hPa | 0 mm | - | 0 W/m² | - |
| 1788422498 | 18.33° C | 84% | 1014.6 hPa | 0 mm | - | 0 W/m² | - |
| 1788422196 | 18.89° C | 83% | 1014.6 hPa | 0 mm | - | 0 W/m² | - |
| 1788421897 | 18.89° C | 82% | 1014.8 hPa | 0 mm | - | 0 W/m² | - |
| 1788421596 | 18.89° C | 81% | 1014.6 hPa | 0 mm | - | 0 W/m² | - |
| 1788421291 | 18.89° C | 81% | 1014.6 hPa | 0 mm | - | 0 W/m² | - |
| 1788420986 | 18.89° C | 80% | 1014.7 hPa | 0 mm | - | 0 W/m² | - |
| 1788420682 | 19.44° C | 80% | 1014.5 hPa | 0 mm | - | 0 W/m² | - |
| 1788420378 | 19.44° C | 80% | 1014.6 hPa | 0 mm | - | 0 W/m² | - |
| 1788420074 | 19.44° C | 79% | 1014.7 hPa | 0 mm | - | 0 W/m² | - |
| 1788419770 | 19.44° C | 79% | 1014.5 hPa | 0 mm | - | 0 W/m² | - |
* Rain latest hour (hover to see other rain measurements)
** Current wind speed in m/s (hover to see current wind gust speed)